Hourly Data Report for September 14, 2020

OTTAWA INTL A
ONTARIO
Current Station Operator: NAVCAN

45°19'00.000" N
75°40'00.000" W
114.90 m
6106001
71628
YOW

Download Data

Hourly Data (September 2020)
Hourly Data Report for September 14, 2020
TIME Temp Definition
°C
Dew Point Definition
°C
Rel Hum Definition
%
Wind Dir Definition
10's deg

Wind Spd Definition
km/h
Visibility Definition
km
Stn Press Definition
kPa
Hmdx Definition


Wind Chill Definition


Weather Definition


00:00 14.8 12.4 86 27 14 24.1 100.15     LegendNANA
01:00 13.7 12.2 91 28 15 24.1 100.23     Mainly Clear
02:00 13.9 12.5 91 30 14 24.1 100.31     LegendNANA
03:00 14.2 9.8 75 31 23 24.1 100.40     LegendNANA
04:00 13.2 6.1 62 33 35 24.1 100.52     Mostly Cloudy
05:00 10.8 5.2 68 33 26 24.1 100.69     LegendNANA
06:00 9.5 5.3 75 32 20 24.1 100.81     LegendNANA
07:00 10.2 6.0 75 30 23 24.1 100.92     Mostly Cloudy
08:00 10.9 5.4 69 31 19 24.1 100.98     LegendNANA
09:00 11.7 5.6 66 31 19 24.1 101.06     LegendNANA
10:00 12.4 5.2 61 32 22 24.1 101.11     Mostly Cloudy
11:00 13.0 4.2 55 34 21 24.1 101.15     LegendNANA
12:00 13.3 4.4 55 29 23 24.1 101.15     LegendNANA
13:00 13.7 5.0 55 31 20 24.1 101.18     Mostly Cloudy
14:00 14.2 4.5 52 33 21 24.1 101.18     LegendNANA
15:00 13.5 3.2 49 31 17 24.1 101.18     LegendNANA
16:00 14.2 3.8 49 30 20 24.1 101.20     Mostly Cloudy
17:00 12.9 2.9 50 33 17 24.1 101.23     LegendNANA
18:00 11.2 4.3 62 31 12 24.1 101.25     LegendNANA
19:00 8.4 3.1 69 25 7 24.1 101.29     Mainly Clear
20:00 8.7 4.7 76 29 10 24.1 101.34     LegendNANA
21:00 8.1 5.2 82 26 7 24.1 101.40     LegendNANA
22:00 5.2 3.6 90 22 4 24.1 101.39     Mainly Clear
23:00 4.3 3.3 93 23 7 24.1 101.41     LegendNANA

Notes on Data Quality.

Legend

  • E = Estimated
  • M = Missing
  • NA = Not Available*
  • [empty] = Indicates an unobserved value
Date modified: